Weather reports worldwide

Advertisment
Exeter Airport No. 2, United Kingdom (3844): temperature & dewpoint: 22.03.2020 20:00:00 - 28.03.2020 20:00:00 (GMT)Exeter Airport No. 2, United Kingdom (3844): reduced air pressure: 22.03.2020 20:00:00 - 28.03.2020 20:00:00 (GMT)Exeter Airport No. 2, United Kingdom (3844): visibility: 22.03.2020 20:00:00 - 28.03.2020 20:00:00 (GMT)Exeter Airport No. 2, United Kingdom (3844): sunshine duration: 22.03.2020 20:00:00 - 28.03.2020 20:00:00 (GMT)Exeter Airport No. 2, United Kingdom (3844): precipitation: 22.03.2020 20:00:00 - 28.03.2020 20:00:00 (GMT)
Date & Time tt [°C] td [°C] ppp [hPa] vv [km] sd [min] rr [mm]
28.03.2020 20:00:00 8,5 -0,1 1032,0 45 0 0,0
28.03.2020 19:00:00 8,8 0,5 1030,9 40 0 0,0
28.03.2020 18:00:00 9,3 1,3 1029,8 40 48 0,0
28.03.2020 17:00:00 10,0 2,3 1028,9 35 60 0,0
28.03.2020 16:00:00 10,5 3,0 1028,7 35 54 0,0
28.03.2020 15:00:00 10,9 2,9 1028,4 40 54 0,0
28.03.2020 14:00:00 11,3 3,6 1028,3 30 60 0,0
28.03.2020 13:00:00 12,0 3,9 1028,1 28 60 0,0
28.03.2020 12:00:00 11,3 1,0 1027,9 20 60 0,0
28.03.2020 11:00:00 10,0 0,0 1027,6 19 54 0,0
28.03.2020 10:00:00 8,3 0,6 1027,4 14 60 0,0
28.03.2020 09:00:00 6,4 1,1 1027,6 12 60 0,0
28.03.2020 08:00:00 5,0 1,2 1027,2 11 48 0,0
28.03.2020 07:00:00 3,7 0,8 1026,9 9 0 0,0
28.03.2020 06:00:00 3,5 0,5 1026,5 8 0 0,0
28.03.2020 05:00:00 3,6 0,5 1026,1 9 0 0,0
28.03.2020 04:00:00 3,8 0,4 1025,7 9 0 0,0
28.03.2020 03:00:00 3,9 -0,5 1025,6 12 0 0,0
28.03.2020 02:00:00 4,5 -1,4 1025,5 14 0 0,0
28.03.2020 01:00:00 5,3 -1,3 1025,7 15 0 0,0
28.03.2020 00:00:00 6,1 -1,0 1025,6 16 - 0,0
27.03.2020 23:00:00 6,7 -1,0 1025,5 17 0 0,0
27.03.2020 22:00:00 6,5 0,1 1025,3 15 0 0,0
27.03.2020 21:00:00 6,0 1,3 1024,7 11 0 0,0
27.03.2020 20:00:00 6,0 0,8 1024,3 10 0 0,0
27.03.2020 19:00:00 8,3 2,2 1023,7 11 0 0,0
27.03.2020 18:00:00 10,1 2,6 1023,2 11 36 0,0
27.03.2020 17:00:00 11,0 3,5 1022,7 10 48 0,0
27.03.2020 16:00:00 10,7 2,9 1022,7 10 30 0,0
27.03.2020 15:00:00 10,9 2,4 1023,1 11 36 0,0
27.03.2020 14:00:00 11,9 4,4 1023,4 11 54 0,0
27.03.2020 13:00:00 10,8 1,6 1023,9 13 60 0,0
27.03.2020 12:00:00 10,4 0,9 1024,2 13 60 0,0
27.03.2020 11:00:00 9,7 1,5 1024,6 13 60 0,0
27.03.2020 10:00:00 7,9 1,9 1024,6 11 60 0,0
27.03.2020 09:00:00 5,9 1,5 1024,6 9 60 0,0
27.03.2020 08:00:00 3,7 0,9 1024,3 8 54 0,0
27.03.2020 07:00:00 1,6 -0,8 1024,0 8 24 0,0
27.03.2020 06:00:00 1,0 -1,8 1023,7 9 0 0,0
27.03.2020 05:00:00 0,6 -2,7 1023,4 10 0 0,0
27.03.2020 04:00:00 1,2 -2,8 1023,3 14 0 0,0
27.03.2020 03:00:00 -0,1 -3,5 1023,1 12 0 0,0
27.03.2020 02:00:00 1,3 -2,5 1023,2 14 0 0,0
27.03.2020 01:00:00 1,6 -2,0 1023,1 14 0 0,0
27.03.2020 00:00:00 1,5 -2,3 1023,0 11 - 0,0
26.03.2020 23:00:00 1,3 -1,7 1022,9 8 0 0,0
26.03.2020 22:00:00 3,6 -1,7 1022,5 15 0 0,0
26.03.2020 21:00:00 7,6 -2,0 1022,2 22 0 0,0
26.03.2020 20:00:00 7,9 -2,3 1022,2 20 0 0,0
26.03.2020 19:00:00 8,9 -1,6 1021,6 21 30 0,0
26.03.2020 18:00:00 12,1 -2,8 1021,1 24 60 0,0
26.03.2020 17:00:00 13,6 -1,9 1020,9 22 60 0,0
26.03.2020 16:00:00 14,0 -1,5 1021,2 21 60 0,0
26.03.2020 15:00:00 13,8 -1,7 1021,5 20 60 0,0
26.03.2020 14:00:00 13,5 -3,6 1021,7 24 60 0,0
26.03.2020 13:00:00 12,9 -1,3 1022,0 22 60 0,0
26.03.2020 12:00:00 - - - - - 0,0
26.03.2020 11:00:00 11,1 -1,4 1022,8 21 60 0,0
26.03.2020 10:00:00 8,0 -0,3 1023,0 17 60 0,0
26.03.2020 09:00:00 4,5 0,8 1023,3 11 60 0,2
26.03.2020 08:00:00 0,9 -0,7 1023,1 10 54 0,0
26.03.2020 07:00:00 -2,5 -3,2 1022,8 3,7 24 0,0
26.03.2020 06:00:00 -2,7 -3,5 1022,5 4,7 0 0,0
26.03.2020 05:00:00 -1,4 -1,7 1022,4 5 0 0,0
26.03.2020 04:00:00 -2,8 -3,3 1022,1 4,3 0 0,0
26.03.2020 03:00:00 -1,8 -2,3 1022,4 3,4 0 0,0
26.03.2020 02:00:00 -0,7 -1,0 1022,4 4,8 0 0,0
26.03.2020 01:00:00 -2,1 -2,9 1022,9 3,0 0 0,0
26.03.2020 00:00:00 -0,7 -1,5 1022,7 3,2 - 0,0
25.03.2020 23:00:00 0,7 0,0 1022,7 5 0 0,0
25.03.2020 22:00:00 1,8 1,0 1022,8 9 0 0,0
25.03.2020 21:00:00 1,8 0,2 1022,9 8 0 0,0
25.03.2020 20:00:00 3,1 0,0 1023,0 11 0 0,0
25.03.2020 19:00:00 6,3 1,3 1022,7 22 24 0,0
25.03.2020 18:00:00 8,4 1,3 1022,6 24 60 0,0
25.03.2020 17:00:00 9,9 0,3 1022,3 28 60 0,0
25.03.2020 16:00:00 10,4 0,4 1022,3 27 60 0,0
25.03.2020 15:00:00 11,2 0,3 1022,6 30 60 0,0
25.03.2020 14:00:00 - - - - - 0,0
25.03.2020 13:00:00 11,9 0,3 1023,2 29 60 0,0
25.03.2020 12:00:00 12,1 -0,2 1023,2 28 60 0,0
25.03.2020 11:00:00 12,3 2,5 1023,2 28 60 0,0
25.03.2020 10:00:00 10,5 3,3 1023,5 25 60 0,0
25.03.2020 09:00:00 6,6 5,5 1023,5 10 60 0,0
25.03.2020 08:00:00 1,2 1,0 1023,6 7 60 0,0
25.03.2020 07:00:00 -1,8 -2,1 1023,5 4,8 24 0,0
25.03.2020 06:00:00 -2,0 -2,3 1023,2 3,2 0 0,0
25.03.2020 05:00:00 -1,7 -2,0 1023,3 3,6 0 0,0
25.03.2020 04:00:00 -1,7 -2,2 1023,2 3,7 0 0,0
25.03.2020 03:00:00 -0,5 -0,9 1023,3 3,5 0 0,0
25.03.2020 02:00:00 0,2 -0,2 1023,5 0,7 0 0,0
25.03.2020 01:00:00 0,9 0,4 1023,5 5 0 0,0
25.03.2020 00:00:00 1,6 0,9 1023,8 6 - 0,0
24.03.2020 23:00:00 2,6 1,6 1023,7 6 0 0,0
24.03.2020 22:00:00 2,7 1,4 1023,8 7 0 0,0
24.03.2020 21:00:00 4,6 3,1 1023,8 12 0 0,0
24.03.2020 20:00:00 5,4 3,0 1023,7 15 0 0,0
24.03.2020 19:00:00 7,6 4,8 1023,4 19 24 0,0
24.03.2020 18:00:00 9,1 4,2 1023,2 19 60 0,0
24.03.2020 17:00:00 10,2 5,1 1023,2 17 60 0,0
24.03.2020 16:00:00 11,4 6,6 1023,3 16 60 0,0
24.03.2020 15:00:00 12,0 4,0 1023,8 23 60 0,0
24.03.2020 14:00:00 12,6 6,0 1024,1 18 60 0,0
24.03.2020 13:00:00 12,3 7,2 1024,5 15 60 0,0
24.03.2020 12:00:00 11,6 6,8 1024,3 16 60 0,0
24.03.2020 11:00:00 11,8 6,9 1024,0 18 60 0,0
24.03.2020 10:00:00 11,4 7,3 1024,1 15 60 0,0
24.03.2020 09:00:00 9,3 8,1 1024,2 6 60 0,0
24.03.2020 08:00:00 2,9 2,6 1024,3 7 54 0,0
24.03.2020 07:00:00 0,0 -0,3 1024,2 4,8 12 0,0
24.03.2020 06:00:00 -0,3 -0,7 1024,1 4,1 0 0,0
24.03.2020 05:00:00 -1,0 -1,9 1023,9 5 0 0,0
24.03.2020 04:00:00 -0,3 -0,9 1023,8 4,8 0 0,0
24.03.2020 03:00:00 -0,9 -1,6 1023,9 7 0 0,0
24.03.2020 02:00:00 -0,4 -1,2 1023,8 4,8 0 0,0
24.03.2020 01:00:00 0,3 -0,5 1024,3 6 0 0,0
24.03.2020 00:00:00 0,8 -0,3 1024,5 7 - 0,0
23.03.2020 23:00:00 1,4 -0,4 1024,6 10 0 0,0
23.03.2020 22:00:00 3,2 0,3 1024,7 17 0 0,0
23.03.2020 21:00:00 4,4 1,0 1024,8 20 0 0,0
23.03.2020 20:00:00 5,0 0,7 1024,7 20 0 0,0
23.03.2020 19:00:00 5,5 1,5 1024,6 20 6 0,0
23.03.2020 18:00:00 6,8 2,1 1024,4 22 60 0,0
23.03.2020 17:00:00 8,0 3,0 1024,0 22 60 0,0
23.03.2020 16:00:00 9,2 3,5 1023,8 22 60 0,0
23.03.2020 15:00:00 9,2 3,2 1024,0 22 60 0,0
23.03.2020 14:00:00 9,7 3,3 1024,3 24 60 0,0
23.03.2020 13:00:00 9,5 3,2 1024,3 23 60 0,0
23.03.2020 12:00:00 9,9 4,0 1024,8 22 60 0,0
23.03.2020 11:00:00 10,3 3,8 1024,5 26 60 0,0
23.03.2020 10:00:00 9,2 3,1 1024,2 25 60 0,0
23.03.2020 09:00:00 8,1 2,2 1023,8 28 60 0,0
23.03.2020 08:00:00 6,9 2,2 1024,3 27 54 0,0
23.03.2020 07:00:00 3,3 0,2 1024,5 24 0 0,0
23.03.2020 06:00:00 2,8 -0,5 1024,3 23 0 0,0
23.03.2020 05:00:00 3,1 -0,5 1023,7 23 0 0,0
23.03.2020 04:00:00 4,6 -0,5 1023,6 26 0 0,0
23.03.2020 03:00:00 4,2 -0,7 1023,3 25 0 0,0
23.03.2020 02:00:00 3,7 -0,3 1024,0 21 0 0,0
23.03.2020 01:00:00 4,8 0,3 1024,6 23 0 0,0
23.03.2020 00:00:00 5,9 0,0 1024,3 26 - 0,0
22.03.2020 23:00:00 4,8 0,1 1024,6 24 0 0,0
22.03.2020 22:00:00 4,6 -0,5 1024,7 23 0 0,0
22.03.2020 21:00:00 4,7 -1,3 1024,6 30 0 0,0
22.03.2020 20:00:00 4,8 -0,7 1024,6 29 0 0,0

tt = temperature
td = dewpoint
ppp = reduced air pressure
vv = visibility
sd = sunshine duration
rr = precipitation

Next stations